Tiempo cada hora Dahshur

Hoy, 29 Noviembre, Domingo

Tiempo Temperatura Precipitaciones Viento Presión Humedad
00:00 +16°C° 0 mm 2 mps 760 mmHg 66%
01:00 +15°C° 0 mm 2 mps 759 mmHg 68%
02:00 +15°C° 0 mm 1 mps 759 mmHg 71%
03:00 +14°C° 0 mm 1 mps 759 mmHg 73%
04:00 +14°C° 0 mm 1 mps 759 mmHg 76%
05:00 +13°C° 0 mm 1 mps 759 mmHg 78%
06:00 +14°C° 0 mm 1 mps 759 mmHg 72%
07:00 +16°C° 0 mm 1 mps 760 mmHg 66%
08:00 +18°C° 0 mm 1 mps 760 mmHg 60%
09:00 +19°C° 0 mm 1 mps 760 mmHg 55%
10:00 +20°C° 0 mm 1 mps 760 mmHg 50%
11:00 +19°C° 0 mm 0 mps 760 mmHg 45%
12:00 +20°C° 0 mm 0 mps 759 mmHg 41%
13:00 +21°C° 0 mm 0 mps 758 mmHg 37%
14:00 +21°C° 0 mm 0 mps 758 mmHg 34%
15:00 +20°C° 0 mm 0 mps 758 mmHg 36%
16:00 +21°C° 0 mm 1 mps 758 mmHg 39%
17:00 +20°C° 0 mm 1 mps 758 mmHg 41%
18:00 +19°C° 0 mm 1 mps 758 mmHg 43%
19:00 +19°C° 0 mm 1 mps 758 mmHg 45%
20:00 +17°C° 0 mm 2 mps 758 mmHg 47%
21:00 +18°C° 0 mm 1 mps 758 mmHg 50%
22:00 +16°C° 0 mm 1 mps 758 mmHg 53%
23:00 +15°C° 0 mm 1 mps 758 mmHg 57%

Mañana, 30 Noviembre, Lunes

Tiempo Temperatura Precipitaciones Viento Presión Humedad
00:00 +15°C° 0 mm 1 mps 758 mmHg 58%
01:00 +15°C° 0 mm 1 mps 757 mmHg 60%
02:00 +14°C° 0 mm 1 mps 757 mmHg 61%
03:00 +13°C° 0 mm 0 mps 757 mmHg 64%
04:00 +12°C° 0 mm 0 mps 757 mmHg 66%
05:00 +12°C° 0 mm 0 mps 757 mmHg 68%
06:00 +13°C° 0 mm 0 mps 757 mmHg 62%
07:00 +16°C° 0 mm 1 mps 757 mmHg 55%
08:00 +18°C° 0 mm 1 mps 758 mmHg 49%
09:00 +18°C° 0 mm 2 mps 758 mmHg 44%
10:00 +20°C° 0 mm 2 mps 757 mmHg 39%
11:00 +21°C° 0 mm 2 mps 757 mmHg 34%
12:00 +23°C° 0 mm 2 mps 757 mmHg 32%
13:00 +24°C° 0 mm 2 mps 756 mmHg 29%
14:00 +24°C° 0 mm 2 mps 755 mmHg 27%
15:00 +23°C° 0 mm 2 mps 755 mmHg 29%
16:00 +21°C° 0 mm 2 mps 755 mmHg 31%
17:00 +19°C° 0 mm 2 mps 755 mmHg 34%
18:00 +19°C° 0 mm 1 mps 755 mmHg 36%
19:00 +18°C° 0 mm 1 mps 755 mmHg 38%
20:00 +15°C° 0 mm 0 mps 755 mmHg 41%
21:00 +16°C° 0 mm 1 mps 755 mmHg 41%
22:00 +16°C° 0 mm 1 mps 755 mmHg 42%
23:00 +16°C° 0 mm 1 mps 755 mmHg 42%

Pasado mañana, 1 Diciembre, Martes

Tiempo Temperatura Precipitaciones Viento Presión Humedad
00:00 +16°C° 0 mm 1 mps 755 mmHg 42%
01:00 +16°C° 0 mm 1 mps 755 mmHg 42%
02:00 +15°C° 0 mm 2 mps 754 mmHg 42%
03:00 +15°C° 0 mm 2 mps 754 mmHg 42%
04:00 +14°C° 0 mm 3 mps 754 mmHg 42%
05:00 +14°C° 0 mm 3 mps 754 mmHg 42%
06:00 +14°C° 0 mm 3 mps 754 mmHg 40%
07:00 +14°C° 0 mm 3 mps 754 mmHg 39%
08:00 +16°C° 0 mm 3 mps 755 mmHg 37%
09:00 +17°C° 0 mm 3 mps 755 mmHg 34%
10:00 +19°C° 0 mm 4 mps 754 mmHg 31%
11:00 +21°C° 0 mm 4 mps 754 mmHg 27%
12:00 +21°C° 0 mm 4 mps 754 mmHg 26%
13:00 +22°C° 0 mm 4 mps 754 mmHg 25%
14:00 +23°C° 0 mm 4 mps 753 mmHg 24%
15:00 +22°C° 0 mm 4 mps 753 mmHg 27%
16:00 +21°C° 0 mm 3 mps 754 mmHg 29%
17:00 +20°C° 0 mm 3 mps 754 mmHg 32%
18:00 +19°C° 0 mm 3 mps 754 mmHg 34%
19:00 +19°C° 0 mm 3 mps 755 mmHg 37%
20:00 +18°C° 0 mm 3 mps 755 mmHg 39%
21:00 +17°C° 0 mm 3 mps 755 mmHg 44%
22:00 +16°C° 0 mm 3 mps 756 mmHg 49%
23:00 +15°C° 0 mm 2 mps 756 mmHg 53%

2 Diciembre, Miércoles

Tiempo Temperatura Precipitaciones Viento Presión Humedad
00:00 +15°C° 0 mm 2 mps 756 mmHg 57%
01:00 +14°C° 0 mm 1 mps 756 mmHg 61%
02:00 +14°C° 0 mm 1 mps 756 mmHg 65%
03:00 +13°C° 0 mm 1 mps 756 mmHg 68%
04:00 +13°C° 0 mm 1 mps 756 mmHg 71%
05:00 +12°C° 0 mm 1 mps 756 mmHg 74%
06:00 +14°C° 0 mm 1 mps 757 mmHg 69%
07:00 +15°C° 0 mm 1 mps 757 mmHg 65%
08:00 +16°C° 0 mm 1 mps 757 mmHg 60%
09:00 +18°C° 0 mm 1 mps 757 mmHg 53%
10:00 +18°C° 0 mm 0 mps 757 mmHg 47%
11:00 +19°C° 0 mm 0 mps 757 mmHg 40%
12:00 +22°C° 0 mm 1 mps 757 mmHg 36%
13:00 +23°C° 0 mm 1 mps 756 mmHg 32%
14:00 +24°C° 0 mm 2 mps 756 mmHg 29%
15:00 +23°C° 0 mm 2 mps 756 mmHg 31%
16:00 +20°C° 0 mm 2 mps 756 mmHg 33%
17:00 +19°C° 0 mm 2 mps 757 mmHg 35%
18:00 +19°C° 0 mm 2 mps 757 mmHg 38%
19:00 +18°C° 0 mm 3 mps 757 mmHg 40%
20:00 +18°C° 0 mm 3 mps 757 mmHg 42%
21:00 +17°C° 0 mm 3 mps 758 mmHg 46%
22:00 +17°C° 0 mm 3 mps 758 mmHg 49%
23:00 +16°C° 0 mm 3 mps 758 mmHg 53%

3 Diciembre, Jueves

Tiempo Temperatura Precipitaciones Viento Presión Humedad
00:00 +16°C° 0 mm 3 mps 758 mmHg 56%
01:00 +16°C° 0 mm 2 mps 758 mmHg 60%
02:00 +16°C° 0 mm 2 mps 758 mmHg 63%
03:00 +15°C° 0 mm 2 mps 758 mmHg 65%
04:00 +15°C° 0 mm 2 mps 758 mmHg 67%
05:00 +14°C° 0 mm 2 mps 758 mmHg 69%
06:00 +15°C° 0 mm 1 mps 758 mmHg 64%
07:00 +16°C° 0 mm 1 mps 758 mmHg 58%
08:00 +18°C° 0 mm 1 mps 759 mmHg 53%
09:00 +20°C° 0 mm 1 mps 759 mmHg 46%
10:00 +21°C° 0 mm 1 mps 758 mmHg 39%
11:00 +23°C° 0 mm 2 mps 758 mmHg 32%
12:00 +23°C° 0 mm 1 mps 758 mmHg 30%
13:00 +24°C° 0 mm 1 mps 757 mmHg 28%
14:00 +25°C° 0 mm 1 mps 756 mmHg 26%
15:00 +23°C° 0 mm 1 mps 757 mmHg 29%
16:00 +22°C° 0 mm 1 mps 757 mmHg 31%
17:00 +20°C° 0 mm 1 mps 757 mmHg 34%
18:00 +20°C° 0 mm 1 mps 757 mmHg 36%
19:00 +19°C° 0 mm 1 mps 757 mmHg 38%
20:00 +18°C° 0 mm 1 mps 757 mmHg 40%
21:00 +18°C° 0 mm 1 mps 757 mmHg 44%
22:00 +16°C° 0 mm 1 mps 757 mmHg 48%
23:00 +16°C° 0 mm 1 mps 757 mmHg 52%

4 Diciembre, Viernes

Tiempo Temperatura Precipitaciones Viento Presión Humedad
00:00 +15°C° 0 mm 1 mps 757 mmHg 53%
01:00 +15°C° 0 mm 1 mps 757 mmHg 54%
02:00 +14°C° 0 mm 1 mps 757 mmHg 55%
03:00 +14°C° 0 mm 1 mps 757 mmHg 56%
04:00 +14°C° 0 mm 1 mps 757 mmHg 56%
05:00 +14°C° 0 mm 2 mps 757 mmHg 57%
06:00 +15°C° 0 mm 1 mps 757 mmHg 54%
07:00 +16°C° 0 mm 1 mps 757 mmHg 51%
08:00 +16°C° 0 mm 0 mps 757 mmHg 48%
09:00 +19°C° 0 mm 1 mps 757 mmHg 43%
10:00 +21°C° 0 mm 1 mps 757 mmHg 39%
11:00 +21°C° 0 mm 2 mps 757 mmHg 34%
12:00 +23°C° 0 mm 2 mps 757 mmHg 32%
13:00 +23°C° 0 mm 2 mps 757 mmHg 31%
14:00 +24°C° 0 mm 2 mps 756 mmHg 29%
15:00 +23°C° 0 mm 2 mps 756 mmHg 31%
16:00 +21°C° 0 mm 3 mps 757 mmHg 34%
17:00 +20°C° 0 mm 3 mps 757 mmHg 37%
18:00 +19°C° 0 mm 3 mps 757 mmHg 41%
19:00 +18°C° 0 mm 4 mps 757 mmHg 45%
20:00 +18°C° 0 mm 4 mps 758 mmHg 49%
21:00 +17°C° 0 mm 3 mps 758 mmHg 55%
22:00 +16°C° 0 mm 3 mps 758 mmHg 61%
23:00 +16°C° 0 mm 3 mps 758 mmHg 67%
Mostrar más

Necesitamos Su Consentimiento

Meteoprog y nuestros Proveedores de Servicios pueden almacenar y acceder a sus datos personales como cookies, identificadores de dispositivo u otras tecnologías similares de su dispositivo y procesar dichos datos para personalizar contenido y anuncios, además de ofrecer funciones de redes sociales y analizar el tráfico.

  • Almacenar y/o acceder a información en su dispositivo

    Se puede almacenar o acceder a cookies, identificadores de dispositivo u otra información de su dispositivo para los fines anteriormente indicados.

  • Anuncios y contenido personalizados, medición de anuncios y contenido, percepciones del público, y desarrollo de productos

    Los anuncios y el contenido pueden personalizarse en base a su perfil. Se pueden añadir más datos para personalizar mejor los anuncios y contenidos. Se puede medir el rendimiento de los anuncios y contenidos. Se puede obtener la percepción sobre el público que ha visto los anuncios y contenidos. Dichos datos pueden usarse para desarrollar o mejorar la experiencia del usuario, sistemas y software.

Al hacer clic en ‘Estoy De Acuerdo’ usted permitirá el uso de las cookies, identificadores de dispositivo, balizas web u otras tecnologías similares indicadas. Su configuración puede cambiarse desde el navegador de su dispositivo.

Para ciertos fines, los intereses legítimos pueden ser considerados por encima del consentimiento. Puede leer más sobre ello en nuestra Política de Privacidad y Cookies.